[[{"header":{"parameterUnit":"m.s-1","parameterCategory":1,"la1":30.2992,"la2":30.254,"lo1":-89.0895,"lo2":-89.0443,"dy":0.0025,"dx":0.0025,"nx":19,"ny":19,"refTime":"2026-04-29T21:00:00:Z","depth":0,"parameterNumber":2,"parameterNumberName":"U-component_of_WINDS"},"data":[0,0,0,-0.6775,-0.6775,-0.6744,-0.6744,-0.6719,-0.6719,0,0,0,0,0,0,0,0,0,0,0,-0.6794,-0.6794,-0.6775,-0.6775,-0.6744,-0.6744,-0.6719,-0.6719,0,0,0,0,0,0,0,0,0,0,0,-0.6794,-0.6794,-0.6794,-0.6775,-0.6744,-0.6744,-0.6719,-0.6737,0,0,0,0,0,0,0,0,0,0,-0.6764,-0.679,-0.6794,-0.6794,-0.6775,-0.6744,-0.6744,-0.6738,-0.6736,-0.6739,0,-0.6745,0,-0.6732,-0.6718,-0.6718,0,0,0,-0.6768,-0.6792,-0.6775,-0.6794,-0.6774,-0.6744,-0.6756,-0.6736,-0.6735,-0.6737,-0.6745,-0.6743,-0.6731,-0.6718,-0.6718,-0.6763,-0.6763,0,0,-0.677,-0.6793,-0.6777,-0.6775,-0.6781,-0.6757,-0.6755,-0.6735,-0.6745,-0.6745,-0.6743,-0.6731,-0.6718,-0.6718,-0.6762,-0.6763,0,0,0,-0.6779,-0.6795,-0.6778,-0.6776,-0.6769,-0.6756,-0.6754,-0.6746,-0.6738,-0.6742,-0.6731,-0.6718,-0.6718,-0.6762,-0.6763,-0.6812,0,0,0,-0.678,-0.68,-0.6779,-0.6793,-0.677,-0.6757,-0.6765,-0.674,-0.6737,-0.6731,-0.6718,-0.6718,-0.6761,-0.6762,-0.681,-0.6832,0,0,0,-0.6793,-0.6801,-0.68,-0.6795,-0.6782,-0.6757,-0.6748,-0.6738,-0.673,-0.6718,-0.6718,-0.6761,-0.6762,-0.6807,-0.6828,-0.6851,0,0,0,-0.6813,-0.6844,-0.6801,-0.6832,-0.6783,-0.6788,-0.6748,-0.6751,-0.6747,-0.6718,-0.6761,-0.6762,-0.6806,-0.6825,-0.6849,-0.6875,-0.6888,0,0,-0.6866,-0.6852,-0.6868,-0.6829,-0.6848,-0.6791,-0.6817,-0.6791,-0.6768,-0.6766,-0.6766,-0.6811,-0.6828,-0.685,-0.6952,-0.6963,0,0,0,-0.6893,-0.6905,-0.6905,-0.6902,-0.6883,-0.6869,-0.6836,-0.6826,-0.6823,-0.6772,-0.6824,-0.6834,-0.6846,-0.6857,-0.6866,-0.6876,-0.6769,-0.6769,-0.6768,-0.7002,-0.6971,-0.6996,-0.6962,-0.696,-0.6926,-0.6922,-0.6903,-0.6872,-0.6885,-0.6884,-0.695,-0.6964,-0.6971,-0.6981,-0.6895,-0.6895,-0.6896,-0.6896,-0.7077,-0.709,-0.7049,-0.7058,-0.7026,-0.7033,-0.7002,-0.698,-0.6982,-0.6948,-0.6957,-0.6922,-0.6983,-0.6991,-0.6899,-0.6899,-0.6898,-0.6898,-0.6898,-0.7146,-0.7146,-0.7134,-0.7127,-0.7125,-0.7089,-0.7094,-0.7064,-0.7035,-0.7045,-0.7041,-0.704,-0.7035,-0.7045,-0.7045,-0.7045,-0.7045,-0.7046,-0.7046,-0.7221,-0.7206,-0.7213,-0.7196,-0.7191,-0.718,-0.7146,-0.714,-0.7125,-0.7103,-0.7102,-0.7071,-0.6995,-0.6977,-0.7049,-0.7049,-0.7048,-0.7048,-0.7048,-0.731,-0.7285,-0.7297,-0.7291,-0.7269,-0.7269,-0.723,-0.722,-0.721,-0.7214,-0.718,-0.7129,-0.7112,-0.7105,-0.7089,-0.7186,-0.7186,-0.7186,-0.7186,-0.7368,-0.7356,-0.7362,-0.7355,-0.7345,-0.7311,-0.7326,-0.73,-0.7269,-0.7261,-0.7243,-0.722,-0.7214,-0.7201,-0.7191,-0.7176,-0.7294,-0.7294,-0.7294,-0.7421,-0.7407,-0.7425,-0.7395,-0.7375,-0.7358,-0.7371,-0.7365,-0.7325,-0.7297,-0.7255,-0.725,-0.7213,-0.7202,-0.7174,-0.716,-0.7133,0,0]},{"header":{"parameterUnit":"m.s-1","parameterCategory":1,"la1":30.2992,"la2":30.254,"lo1":-89.0895,"lo2":-89.0443,"dy":0.0025,"dx":0.0025,"nx":19,"ny":19,"refTime":"2026-04-29T21:00:00:Z","depth":0,"parameterNumber":3,"parameterNumberName":"V-component_of_WINDS"},"data":[0,0,0,5.3898,5.3899,5.3971,5.3972,5.405,5.405,0,0,0,0,0,0,0,0,0,0,0,5.3871,5.3872,5.3898,5.3899,5.3971,5.3972,5.405,5.405,0,0,0,0,0,0,0,0,0,0,0,5.3871,5.3872,5.3872,5.39,5.3971,5.3972,5.4049,5.3999,0,0,0,0,0,0,0,0,0,0,5.3931,5.3902,5.3871,5.3872,5.39,5.3971,5.3972,5.3997,5.4002,5.4012,0,5.4022,0,5.4038,5.4055,5.4055,0,0,0,5.3902,5.3898,5.3923,5.3872,5.3901,5.3971,5.394,5.4,5.4006,5.4019,5.4023,5.4027,5.4039,5.4055,5.4056,5.411,5.411,0,0,5.3898,5.388,5.3918,5.3926,5.3918,5.3937,5.3942,5.4004,5.4006,5.4024,5.4029,5.404,5.4056,5.4056,5.411,5.411,0,0,0,5.3885,5.3877,5.3901,5.3923,5.3937,5.3939,5.3945,5.4003,5.4013,5.403,5.4041,5.4056,5.4057,5.411,5.411,5.41,0,0,0,5.3883,5.387,5.3899,5.3889,5.3936,5.3972,5.3942,5.4008,5.4016,5.4041,5.4056,5.4058,5.411,5.411,5.41,5.4097,0,0,0,5.3868,5.3868,5.3877,5.3888,5.3918,5.3971,5.3984,5.4011,5.4023,5.4055,5.4058,5.4109,5.411,5.41,5.4097,5.4107,0,0,0,5.3846,5.3865,5.3877,5.3902,5.3918,5.3966,5.3984,5.402,5.4046,5.4057,5.411,5.411,5.41,5.4098,5.4107,5.4111,5.4112,0,0,5.386,5.3866,5.3882,5.3895,5.3937,5.3956,5.3995,5.4035,5.4052,5.4089,5.409,5.41,5.4097,5.4107,5.4122,5.4122,0,0,0,5.388,5.3892,5.3907,5.3933,5.3966,5.3993,5.4029,5.4043,5.4076,5.4069,5.4106,5.4105,5.4111,5.4114,5.4115,5.4121,5.4111,5.4111,5.4111,5.3872,5.3897,5.3925,5.3959,5.3983,5.4021,5.4042,5.4068,5.4082,5.4091,5.4102,5.4109,5.4111,5.4112,5.4118,5.4106,5.4106,5.4106,5.4106,5.3894,5.3914,5.3936,5.3972,5.3996,5.4025,5.4061,5.4071,5.4099,5.4102,5.4108,5.4109,5.4112,5.4118,5.4106,5.4106,5.4106,5.4106,5.4106,5.3891,5.3905,5.3925,5.3966,5.3994,5.4026,5.4053,5.4074,5.4092,5.4099,5.4112,5.4113,5.4115,5.4104,5.4104,5.4104,5.4104,5.4104,5.4104,5.388,5.3903,5.3926,5.3963,5.3983,5.4012,5.405,5.4069,5.4094,5.4107,5.4107,5.412,5.4108,5.4104,5.4105,5.4105,5.4105,5.4105,5.4105,5.3893,5.3894,5.3928,5.3949,5.3994,5.402,5.4047,5.4084,5.4102,5.4114,5.4127,5.4115,5.4122,5.4122,5.4119,5.4123,5.4123,5.4123,5.4123,5.389,5.3897,5.3938,5.3968,5.4001,5.4029,5.4064,5.4093,5.4123,5.4135,5.4138,5.4136,5.4135,5.4142,5.4141,5.4139,5.4148,5.4148,5.4148,5.3899,5.391,5.3938,5.3971,5.4008,5.4038,5.4072,5.4104,5.4137,5.4149,5.4145,5.4144,5.4141,5.4139,5.415,5.4149,5.4145,0,0]}]]